This is the latest recevied weather packets stored in our database for station/object SV1JSO-13. If no packets are shown the sender has not sent any weather packets the latest 10 day(s).
| Time | Temp. | Humidity | Pressure | Rain* | Wind** | Luminosity | Snow |
|---|---|---|---|---|---|---|---|
| 1788599101 | 31.11° C | 27% | 1010.5 hPa | 0 mm | - | 692 W/m² | - |
| 1788598801 | 31.11° C | 26% | 1010.5 hPa | 0 mm | - | 689 W/m² | - |
| 1788598501 | 30.56° C | 26% | 1010.6 hPa | 0 mm | - | 687 W/m² | - |
| 1788598201 | 31.11° C | 27% | 1010.5 hPa | 0 mm | - | 668 W/m² | - |
| 1788597901 | 31.11° C | 29% | 1010.8 hPa | 0 mm | - | 657 W/m² | - |
| 1788597601 | 30.56° C | 29% | 1010.7 hPa | 0 mm | - | 648 W/m² | - |
| 1788597301 | 30.56° C | 29% | 1010.6 hPa | 0 mm | - | 644 W/m² | - |
| 1788597001 | 31.11° C | 29% | 1010.6 hPa | 0 mm | - | 629 W/m² | - |
| 1788596701 | 31.11° C | 27% | 1010.7 hPa | 0 mm | - | 622 W/m² | - |
| 1788596401 | 30.56° C | 29% | 1010.7 hPa | 0 mm | - | 615 W/m² | - |
| 1788596101 | 30.56° C | 30% | 1010.7 hPa | 0 mm | - | 603 W/m² | - |
| 1788595801 | 30.56° C | 30% | 1010.7 hPa | 0 mm | - | 591 W/m² | - |
| 1788595501 | 30.56° C | 29% | 1010.6 hPa | 0 mm | - | 585 W/m² | - |
| 1788595201 | 30.56° C | 30% | 1010.8 hPa | 0 mm | - | 570 W/m² | - |
| 1788594901 | 30.56° C | 29% | 1010.7 hPa | 0 mm | - | 557 W/m² | - |
| 1788594605 | 30.56° C | 29% | 1010.7 hPa | 0 mm | - | 546 W/m² | - |
| 1788594301 | 30.56° C | 31% | 1010.6 hPa | 0 mm | - | 536 W/m² | - |
| 1788594001 | 30° C | 31% | 1010.3 hPa | 0 mm | - | 524 W/m² | - |
| 1788593700 | 30° C | 31% | 1010.5 hPa | 0 mm | - | 508 W/m² | - |
| 1788593400 | 30° C | 32% | 1010.4 hPa | 0 mm | - | 496 W/m² | - |
| 1788593101 | 29.44° C | 34% | 1010.3 hPa | 0 mm | - | 483 W/m² | - |
| 1788592819 | 29.44° C | 32% | 1010.3 hPa | 0 mm | - | 470 W/m² | - |
| 1788592501 | 29.44° C | 33% | 1010.4 hPa | 0 mm | - | 455 W/m² | - |
| 1788592201 | 29.44° C | 32% | 1010.5 hPa | 0 mm | - | 439 W/m² | - |
| 1788591900 | 29.44° C | 34% | 1010.4 hPa | 0 mm | - | 429 W/m² | - |
* Rain latest hour (hover to see other rain measurements)
** Current wind speed in m/s (hover to see current wind gust speed)